Regional Weather Roundup
Issued by NWS

Home | Current Version | Previous Version | Graphics & Text | Print | Product List | Glossary On
Versions: 1 2 3 4 5 6 7 8 9 10 11 12 13 14 15 16 17 18 19 20 21 22 23 24 25 26 27 28 29 30 31 32 33 34 35 36 37 38 39 40 41 42 43 44 45 46 47 48 49 50
000
ASUS44 KMEG 260410
RWRTN
TENNESSEE HOURLY STATE WEATHER ROUNDUP
NATIONAL WEATHER SERVICE MEMPHIS TN
1100 PM CDT FRI JUL 25 2014

TNZ002-004-019-021-049-052-054-088>092-260500-
WEST TENNESSEE

CITY           SKY/WX    TMP DP  RH WIND       PRES   REMARKS
MEMPHIS INTL   PTCLDY    75  64  68 SW6       29.98S
NWS MEMPHIS      N/A     71 N/A N/A MISG        N/A
JACKSON        CLEAR     69  65  86 CALM      29.99R
DYERSBURG      PTCLDY    70  57  64 CALM      29.99R
UNION CITY     CLEAR     66  64  94 CALM      29.97S
PARIS          MOCLDY    63  60  90 CALM      30.00R
LEXINGTON      CLEAR     68  66  94 CALM      29.99S
SAVANNAH       CLEAR     67  67 100 CALM      30.01R
$$

TNZ008-025-027-028-033-062-065-066-260500-
NORTH MIDDLE TENNESSEE

CITY           SKY/WX    TMP DP  RH WIND       PRES   REMARKS
NASHVILLE      MOCLDY    74  63  68 CALM      30.02R
DICKSON        PTCLDY    66  63  88 CALM      30.02R
PORTLAND       MOCLDY    66  63  88 CALM      30.02R
CLARKSVILLE    MOCLDY    69  63  81 CALM      30.00R
LEBANON        PTCLDY    72  62  70 CALM      30.01
SMYRNA         PTCLDY    69  66  90 CALM      30.03R
MURFREESBORO   PTCLDY    70  64  81 E5        30.02R
COOKEVILLE     CLEAR     64  61  88 CALM      30.05R
LIVINGSTON       N/A     65  59  81 CALM      30.06R
GALLATIN       PTCLDY    72  65  78 CALM      30.03R
CROSSVILLE     MOCLDY    64  58  80 CALM      30.10R
$$

TNZ061-075-076-078-094-096-097-260500-
SOUTH MIDDLE TENNESSEE

CITY           SKY/WX    TMP DP  RH WIND       PRES   REMARKS
LEWISBURG      PTCLDY    66  63  90 CALM      30.02R
FAYETTEVILLE   CLEAR     70  63  78 CALM      30.03R
TULLAHOMA      CLEAR     66  63  88 CALM      30.05R
WINCHESTER     CLEAR     66  63  88 CALM      30.05R
MCMINNVILLE    CLEAR     64  64 100 CALM      30.05R
COLUMBIA       CLEAR     70  66  88 CALM      30.01R
SHELBYVILLE    CLEAR     68  64  88 E3        30.03R
$$

TNZ017-018-042-046-047-260500-
NORTHEAST TENNESSEE

CITY           SKY/WX    TMP DP  RH WIND       PRES   REMARKS
TRI CITIES     PTCLDY    65  60  84 CALM      30.07R
ELIZABETHTON   CLEAR     64  61  88 CALM      30.08S
$$

TNZ012-013-036-069-073-074-260500-
CENTRAL EAST TENNESSEE

CITY           SKY/WX    TMP DP  RH WIND       PRES   REMARKS
KNOXVILLE      CLOUDY    70  64  81 CALM      30.04R
OAK RIDGE      MOCLDY    70  65  84 CALM      30.06R
GATLINBURG     CLEAR     66  63  88 CALM      30.05R
MORRISTOWN     CLEAR     66  63  88 CALM      30.07R
$$

TNZ083-085-099-260500-
SOUTHEAST TENNESSEE

CITY           SKY/WX    TMP DP  RH WIND       PRES   REMARKS
CHATTANOOGA    MOCLDY    72  64  76 E3        30.03R
$$

SKY/WX REPORTED AS FAIR MEANS FEW OR NO CLOUDS BELOW
12 THOUSAND FEET.



USA.gov is the U.S. government's official web portal to all federal, state and local government web resources and services.